Powrót do katalogu

STARLINK-36290

AktywnyŁącznośćVLEO
NORAD 68516·PAYLOAD·🇺🇸 United States

Wystrzelony Mar 30, 2026 z Cape Canaveral Space Force Station

Loading…

Następne Przeloty (najbliższe 24 godziny)

TLE

ŚwieżeSource: CelesTrak SupGP

Epoka: Sep 15, 2026, 03:31 UTC

1 68516C 26068J   26258.14701389  .00044447  00000+0  13129-2 0  2582
2 68516  53.1597 324.5239 0001213  89.0741  78.3922 15.34374378    19

Śledź STARLINK-36290 w czasie rzeczywistym z AllMySat

Download on the App Store